www.pogodaiklimat.ru

Погода и климат >> Архив погоды >> Бангладеш >> Sitakundu


ПОГОДА в Sitakundu

  • Прогноз погоды в Sitakundu
  • Монитор погоды в Sitakundu
  • Климат города

АРХИВ ПОГОДЫ в Sitakundu

Время (UTC), дата Ветер
(напр.,м/с)
 
Видим.   Явления Облачность Т
(С)
Тd
(С)
f
(%)
Тe
(С)
Тes
(С)
Комфортность P
(гПа)
Po
(гПа)
Тmin
(С)
Tmax
(С)
R
(мм)
R24
(мм)
S
(см)
00 5.12 штиль 0 1000 м дымка {туман} 5/0
[Ci sp]
+13.5 +13.5 100 +13 +13 1013.5 1012.6
03 5.12 штиль 0 2000 м дымка {туман} ясно +23.5 +18.0 71 +28 +34 душно 1014.1 1013.3 +13.0
06 5.12 штиль 0 4500 м мгла {туман} 3/0
[Ci sp]
+27.5 +15.0 46 +30 +44 жарко 1012.2 1011.4
09 5.12 штиль 0 5000 м мгла 8/0
[Cc]
+28.2 +14.0 42 +30 +35 жарко 1010.1 1009.3
12 5.12 штиль 0 3000 м мгла {туман} ясно +18.5 +17.0 91 +19 +19 1010.5 1009.7 +29.3
15 5.12 штиль 0 2500 м дымка {туман} ясно +15.5 +15.0 97 +15 +15 1012.0 1011.1
18 5.12 штиль 0 2000 м дымка {туман} ясно +14.8 +14.0 95 +14 +14 1012.3 1011.4
00 6.12 штиль 0 1000 м дымка {туман} 4/0
[Cc]
+14.4 +13.0 91 +14 +14 1011.7 1010.8
03 6.12 штиль 0 1500 м дымка {туман} 9/3 540 м
[Sc diur, vesp As trans]
+19.0 +18.0 94 +21 +23 комфорт 1013.9 1013.1 +13.7
06 6.12 штиль 0 3000 м дымка {туман} 8/0
[Ci sp]
+27.0 +15.0 48 +30 +42 душно 1011.2 1010.4
09 6.12 ЮЗ 1 5000 м мгла {туман} 8/0
[Ci sp]
+28.0 +13.0 40 +30 +34 жарко 1009.9 1009.1
12 6.12 штиль 0 3000 м дымка {туман} 8/0
[Ci sp]
+18.5 +17.0 91 +19 +19 1010.4 1009.4 +28.3
15 6.12 штиль 0 2500 м дымка {туман} 3/3 540 м
[Sc diur, vesp]
+17.5 +17.0 97 +17 +17 1012.0 1011.1
18 6.12 штиль 0 2000 м дымка {туман} ясно +14.8 +14.0 95 +14 +14 1012.5 1011.6
00 7.12 штиль 0 1000 м дымка {туман} ясно +14.0 +14.0 100 +13 +13 1012.1 1011.2
03 7.12 штиль 0 2000 м дымка {туман} ясно +22.0 +17.0 73 +26 +33 душно 1013.7 1012.9 +13.8
06 7.12 штиль 0 5000 м мгла {туман} 8/0
[Ci sp]
+28.0 +13.0 40 +30 +42 жарко 1009.9 1009.1
09 7.12 штиль 0 5000 м ясно +28.2 +14.0 42 +30 +36 жарко 1010.5 1009.7
12 7.12 штиль 0 3000 м дымка {туман} ясно +18.5 +17.0 91 +19 +19 1010.6 1009.8 +29.3
15 7.12 штиль 0 2000 м дымка {туман} ясно +16.0 +15.0 94 +16 +16 1012.0 1011.1
18 7.12 штиль 0 2000 м дымка {туман} ясно +14.5 +14.0 97 +14 +14 1013.0 1012.1
00 8.12 штиль 0 1000 м дымка {туман} ясно +13.5 +13.5 100 +13 +13 1012.7 1011.8
03 8.12 штиль 0 1500 м дымка {туман} ясно +23.0 +18.0 73 +28 +35 душно 1013.0 1012.2 +13.0
06 8.12 ЮЗ 1 4500 м мгла {туман} ясно +27.0 +12.0 39 +28 +41 жарко 1012.9 1012.1
09 8.12 штиль 0 5000 м мгла ясно +27.5 +15.0 46 +30 +36 жарко 1011.5 1010.7
12 8.12 штиль 0 2500 м дымка {туман} ясно +18.5 +17.0 91 +19 +19 1010.5 1009.7 +28.0
15 8.12 штиль 0 2000 м дымка {туман} ясно +15.0 +14.0 94 +15 +15 1013.4 1012.5
18 8.12 штиль 0 2000 м дымка {туман} ясно +14.0 +14 +14 1013.5 1012.6
00 9.12 штиль 0 1000 м дымка {туман} ясно +13.5 +13.5 100 +13 +13 1013.9 1013.0
03 9.12 штиль 0 3000 м дымка {туман} ясно +22.0 +16.0 69 +26 +32 душно 1014.7 1013.9 +12.3
06 9.12 штиль 0 5000 м мгла {туман} ясно +27.0 +12.0 39 +28 +43 жарко 1013.2 1012.4
09 9.12 штиль 0 5000 м мгла ясно +27.7 +9.0 31 +28 +33 жарко 1010.9 1010.1
12 9.12 штиль 0 2500 м дымка {туман} ясно +17.5 +16.0 91 +17 +17 1011.4 1010.5 +28.3
15 9.12 штиль 0 2000 м дымка {туман} ясно +14.0 +13.0 94 +14 +14 1012.8 1011.9
18 9.12 штиль 0 2000 м дымка {туман} ясно +13.2 +13.0 99 +13 +13 1013.0 1012.1
06 10.12 штиль 0 4500 м мгла {туман} ясно +28.5 +12.0 36 +30 +44 жарко 1012.1 1011.2
09 10.12 штиль 0 5000 м мгла ясно +30.0 +13.0 35 +31 +37 жарко 1010.6 1009.8
12 10.12 штиль 0 2500 м дымка {туман} ясно +18.5 +17.0 91 +19 +19 1010.9 1010.1 +29.0
15 10.12 штиль 0 2000 м дымка {туман} ясно +14.5 +14.0 97 +14 +14 1012.8 1011.9
18 10.12 штиль 0 2000 м дымка {туман} ясно +13.3 +12.0 92 +13 +13 1013.1 1012.2
00 11.12 штиль 0 1000 м дымка {туман} ясно +13.5 +13.0 97 +13 +13 1012.2 1011.3
03 11.12 штиль 0 2500 м дымка {туман} ясно +23.5 +17.0 67 +27 +34 душно 1014.1 1013.2 +13.0
06 11.12 штиль 0 4500 м мгла {туман} ясно +28.7 +17.0 49 +32 +47 душно 1012.2 1011.4
09 11.12 штиль 0 4500 м мгла {туман} ясно +28.5 +15.0 44 +31 +37 душно 1011.0 1010.2
12 11.12 штиль 0 3000 м мгла {туман} ясно +19.1 +16.0 82 +20 +20 1011.4 1010.6 +29.7
15 11.12 штиль 0 2500 м дымка {туман} ясно +16.2 +15.0 93 +16 +16 1013.2 1012.3

 

Местоположение метеостанции Sitakundu (Бангладеш): широта 22.58 долгота 91.70 высота над уровнем моря 44 м.

В архиве по умолчанию представлена погода в Sitakundu за последнюю неделю. Архивные данные за месяц целиком и за предыдущие месяцы, начиная с января 2011 года, Вы можете получить, выбрав интересующий диапазон дат из раскрывающегося списка и нажав кнопку "Ввод!".


*Определитесь, кто Вы:
робот инопланетянин человек

Внимание! Время в таблицах - всемирное. Для получения местного времени необходимо прибавить поправку, которая в Sitakundu равна 6.5 ч.

Смотрите также архив погоды в соседних городах и на ближайших метеорологических станциях:

Погода в Sandwip (Бангладеш) (30 км)
Погода в Chittagong (Бангладеш) (37 км)
Погода в Rangamati (Бангладеш) (52 км)
Погода в Feni (Бангладеш) (58 км)
Погода в Hatia (Бангладеш) (64 км)
Погода в Maijdicourt (Бангладеш) (69 км)
Погода в Kutubdia (Бангладеш) (86 км)
Погода в Bhola (Бангладеш) (108 км)
Погода в Comilla (Бангладеш) (109 км)
Погода в Chandpur (Бангладеш) (128 км)

Пояснения к столбцам:

Ветер - указаны скорость ветра в м/с - средняя за 10 мин, порывы в срок и между сроками (в фигурных скобках) и направление, откуда дует ветер: С - северный, СВ - северо-восточный, В - восточный, ЮВ - юго-восточный, Ю - южный, ЮЗ - юго-западный, З - западный, СЗ - северо-западный.
Видимость - горизонтальная дальность видимости в метрах или километрах. При видимости от 1 до 10 км при отсутствии осадков обычно наблюдается дымка, при ухудшении видимости до 1 км и менее - туман. В сухую погоду видимость может ухудшаться дымом, пылью или мглою.
Явления - указаны атмосферные явления, наблюдавшиеся в срок или в последний час перед сроком; фигурными скобками обозначены явления, наблюдавшиеся между сроками (за 1-3 часа до срока); квадратными скобками обозначены град или гололедные отложения с указанием их диаметра в мм.
Облачность - указаны через наклонную черту общая и нижняя облачность в баллах и высота нижней границы облаков в метрах; квадратными скобками обозначены формы облаков: Ci - перистые, Cs - перисто-слоистые, Cc - перисто-кучевые, Ac - высококучевые, As - высокослоистые, Sc - слоисто-кучевые, Ns - слоисто-дождевые, Cu - кучевые, Cb - кучево-дождевые. Подробнее классификацию облаков см. в Атласе облаков (PDF).
T - Температура воздуха - температура, измеренная на высоте 2 м над землей.
Td - Температура точки росы - температура, при понижении до которой содержащийся в воздухе водяной пар достигнет насыщения.
f - Относительная влажность воздуха - влажноcть воздуха, измеренная на высоте 2 м над землей.
Te - Эффективная температура - температура, которую ощущает одетый по сезону человек в тени. Характеристика душности погоды. При расчете учитывается влияние влажности воздуха и скорости ветра на теплоощущения человека.
Tes - Эффективная температура на солнце - температура, которую ощущает человек, с поправкой на солнечный нагрев. Характеристика знойности погоды. Зависит от высоты солнца над горизонтом, облачности и скорости ветра. Ночью, в пасмурную погоду, а также при ветре 12 м/с и более поправка равна нулю.
P - Атмосферное давление - приведенное к уровню моря атмосферное давление.
Po - Атмосферное давление - измеренное на уровне метеостанции атмосферное давление.
Tmin - Минимальная температура - минимум температуры воздуха на высоте 2 м над землей.
Tmax - Максимальная температура - максимум температуры воздуха на высоте 2 м над землей.
R - Количество осадков - Количество выпавших осадков за период времени, мм. При наведении курсора мыши на число - период времени, за который выпало указанное количество осадков.
R24 - Количество осадков - Количество выпавших осадков за 24 часа, мм.
S - Снежный покров - Высота снежного покрова, см. При наведении курсора мыши на число - состояние снежного покрова и степень покрытия местности в баллах.